CAPE
0 0 0 0 0 0 0 0 0 0 0 0 0 0 0 0 0 0 0 0 0 0 0 2 2 7 8 11 4 8 6 8 2 0 0 0 0 0 0 0 0 0 0
0 0 0 0 0 0 0 0 0 0 0 0 0 0 0 0 0 0 0 0 0 0 0 0 6 3 2 6 6 7 5 5 6 9 0 0 0 0 0 0 0 0 0
0 0 0 0 0 0 0 0 0 0 0 0 0 0 0 0 0 0 0 0 0 0 0 0 0 5 6 5 8 10 8 6 2 12 3 0 0 0 0 0 0 0 0
0 0 0 0 0 0 0 0 0 0 0 0 0 0 0 0 0 0 0 0 0 0 0 0 0 0 5 13 12 8 9 9 5 3 9 0 0 0 0 0 0 0 0
0 0 0 0 0 0 0 0 0 0 0 0 0 0 0 0 0 0 0 0 0 0 0 0 0 0 2 2 7 10 14 9 7 3 1 0 0 0 0 0 0 0 0
0 0 0 0 0 0 0 0 0 0 0 0 0 0 0 0 0 0 0 0 0 0 0 0 0 0 0 4 5 7 9 10 9 8 3 1 13 0 0 0 0 0 0
0 0 0 0 0 0 0 0 0 0 0 0 0 0 0 0 0 0 0 0 0 0 0 0 0 0 0 0 2 6 6 8 16 14 11 7 5 21 0 0 0 0 0
0 0 0 0 0 0 0 0 0 0 0 0 0 0 0 0 0 0 0 0 0 0 0 0 0 0 0 3 0 2 11 14 6 11 16 22 6 2 3 0 0 0 0
0 0 0 0 0 0 0 0 0 0 0 0 0 0 0 0 0 0 0 0 0 0 0 0 0 1 5 10 5 13 7 5 16 26 7 8 22 0 3 0 0 0 0
0 0 0 0 0 0 0 0 0 0 0 0 0 0 0 0 0 0 0 0 0 0 0 0 2 4 7 10 4 7 13 9 11 0 6 4 0 6 0 0 0 0 0
0 0 0 0 0 0 0 0 0 0 0 0 0 0 0 0 0 0 0 0 0 0 0 2 1 3 5 9 19 4 13 5 3 3 3 11 6 13 0 0 0 0 0
0 0 0 0 0 0 0 0 0 0 0 0 0 0 0 0 0 0 0 1 2 0 2 0 0 1 8 12 16 15 13 8 11 17 12 9 3 3 12 0 0 0 0
0 0 0 0 0 0 0 0 0 0 0 0 0 0 0 0 0 0 0 1 2 1 0 1 12 11 12 4 4 26 10 8 13 9 8 8 3 3 5 5 0 0 0
0 0 0 0 0 0 0 0 0 0 0 0 0 0 0 0 0 0 0 0 0 0 1 0 1 10 19 12 4 1 0 0 3 1 4 3 4 6 5 10 1 0 0
0 0 0 0 0 0 0 0 0 0 0 0 0 0 0 0 0 1 3 1 0 4 4 0 0 0 1 1 2 2 1 1 3 1 1 7 6 8 5 4 0 0 0
0 0 0 0 0 0 0 0 0 1 5 9 14 7 0 6 24 25 27 30 34 30 1 0 1 4 8 7 4 2 1 1 0 0 0 5 8 1 9 0 0 0 0
0 0 0 0 0 0 0 0 0 0 0 0 4 10 14 16 22 26 32 38 31 28 0 0 0 5 10 6 1 1 11 0 0 0 0 1 22 5 2 2 0 0 0
0 0 0 0 0 0 0 0 0 0 0 0 0 0 5 11 16 22 29 31 0 0 0 0 0 1 3 2 2 7 7 2 0 3 8 14 12 8 1 10 0 0 0
0 0 0 0 0 0 0 0 0 0 0 0 0 0 1 4 12 22 30 2 1 0 0 0 0 0 0 3 10 2 0 1 4 2 6 12 7 10 5 11 0 3 2
0 0 1 0 0 0 0 0 0 0 0 0 0 0 0 0 0 0 0 0 0 0 2 2 2 5 5 1 3 1 3 8 4 7 7 7 4 10 9 0 1 0 0
0 0 2 0 0 0 0 0 0 0 0 0 0 0 8 0 0 0 0 0 0 0 0 0 1 3 1 1 1 4 11 5 7 4 1 9 7 10 7 1 11 0 0
0 0 0 0 0 0 0 0 0 0 0 0 0 0 25 2 0 0 0 0 0 0 0 0 0 0 0 0 1 2 3 2 3 3 2 7 7 8 9 4 7 0 0
0 0 0 0 0 0 0 0 0 0 0 0 0 0 0 0 0 0 0 0 0 0 0 0 0 0 0 0 2 2 1 1 2 5 3 4 4 8 7 1 8 0 0
0 0 0 0 0 0 0 0 0 0 0 0 0 0 0 0 0 0 0 0 0 0 0 0 0 0 0 0 2 5 4 4 7 2 3 1 4 3 8 4 4 0 0
0 0 0 0 0 0 0 0 0 0 0 0 0 0 0 0 0 0 0 0 0 0 0 0 0 0 0 0 0 1 7 12 10 8 9 5 2 1 5 0 0 5 0
0 0 0 0 0 0 0 0 0 0 0 0 0 0 0 0 0 0 0 0 0 0 0 0 0 0 0 0 0 2 13 20 12 22 8 3 1 3 4 3 1 8 0
CIN
-0 -0 -0 -0 -0 -0 -0 -0 -0 -0 -0 -0 -0 -0 -0 -0 -0 -0 -0 -0 -0 -0 -0 -0 -0 -0 -0 -0 -0 -0 -0 -0 -0 -0 -0 -0 -0 -0 -0 -0 -0 -0 -0
-0 -0 -0 -0 -0 -0 -0 -0 -0 -0 -0 -0 -0 -0 -0 -0 -0 -0 -0 -0 -0 -0 -0 -0 -0 -0 -0 -0 -0 -0 -0 -0 -0 -0 -0 -0 -0 -0 -0 -0 -0 -0 -0
-0 -0 -0 -0 -0 -0 -0 -0 -0 -0 -0 -0 -0 -0 -0 -0 -0 -0 -0 -0 -0 -0 -0 -0 -0 -0 -0 -0 -0 -0 -0 -0 -0 -0 -0 -0 -0 -0 -0 -0 -0 -0 -0
-0 -0 -0 -0 -0 -0 -0 -0 -0 -0 -0 -0 -0 -0 -0 -0 -0 -0 -0 -0 -0 -0 -0 -0 -0 -0 -0 -0 -0 -0 -0 -0 -0 -0 -0 -0 -0 -0 -0 -0 -0 -0 -0
-0 -0 -0 -0 -0 -0 -0 -0 -0 -0 -0 -0 -0 -0 -0 -0 -0 -0 -0 -0 -0 -0 -0 -0 -0 -0 -0 -0 -0 -0 -0 -0 -0 -0 -0 -0 -0 -0 -0 -0 -0 -0 -0
-0 -0 -0 -0 -0 -0 -0 -0 -0 -0 -0 -0 -0 -0 -0 -0 -0 -0 -0 -0 -0 -0 -0 -0 -0 -0 -0 -0 -0 -0 -0 -0 -0 -0 -0 -0 -0 -0 -0 -0 -0 -0 -0
-0 -0 -0 -0 -0 -0 -0 -0 -0 -0 -0 -0 -0 -0 -0 -0 -0 -0 -0 -0 -0 -0 -0 -0 -0 -0 -0 -0 -0 -0 -0 -0 -0 -0 -0 -0 -0 -0 -0 -0 -0 -0 -0
-0 -0 -0 -0 -0 -0 -0 -0 -0 -0 -0 -0 -0 -0 -0 -0 -0 -0 -0 -0 -0 -0 -0 -0 -0 -0 -0 -0 -0 -0 -0 -0 -0 -0 -0 -0 -0 -0 -0 -0 -0 -0 -0
-0 -0 -0 -0 -0 -0 -0 -0 -0 -0 -0 -0 -0 -0 -0 -0 -0 -0 -0 -0 -0 -0 -0 -0 -0 -1 -0 -0 -0 -0 -1 -0 -0 -0 -2 -0 -0 -0 -1 -0 -0 -0 -0
-0 -0 -0 -0 -0 -0 -0 -0 -0 -0 -0 -0 -0 -0 -0 -0 -0 -0 -0 -0 -0 -0 -0 -0 -0 -1 -0 -0 -2 -0 -0 -0 -0 -0 -0 -0 -0 -0 -3 -0 -0 -0 -0
-0 -0 -0 -0 -0 -0 -0 -0 -0 -0 -0 -0 -0 -0 -0 -0 -0 -0 -0 -0 -0 -0 -0 -0 -0 -0 -0 -0 -0 -0 -0 -1 -1 -0 -0 -0 -0 -0 -0 -0 -0 -0 -0
-0 -0 -0 -0 -0 -0 -0 -0 -0 -0 -0 -0 -0 -0 -0 -0 -0 -0 -0 -0 -0 -0 -0 -0 -0 -0 -0 -0 -0 -0 -0 -0 -0 -0 -1 -0 -0 -0 -0 -0 -0 -0 -0
-0 -0 -0 -0 -0 -0 -0 -0 -0 -0 -0 -0 -0 -0 -0 -0 -0 -0 -0 -0 -0 -0 -0 -0 -0 -0 -0 -0 -0 -0 -0 -0 -0 -1 -1 -0 -1 -1 -1 -4 -0 -0 -0
-0 -0 -0 -0 -0 -0 -0 -0 -0 -0 -0 -0 -0 -0 -0 -0 -0 -0 -0 -0 -0 -0 -0 -0 -0 -0 -0 -0 -0 -1 -0 -1 -1 -1 -1 -1 -1 -1 -0 -0 -1 -0 -0
-0 -0 -0 -0 -0 -0 -0 -0 -0 -0 -0 -0 -0 -0 -0 -0 -0 -0 -0 -0 -0 -2 -2 -3 -0 -0 -3 -2 -1 -2 -3 -2 -1 -2 -1 -0 -0 -0 -0 -2 -0 -0 -0
-0 -0 -0 -0 -0 -0 -0 -0 -0 -0 -0 -0 -0 -0 -0 -0 -0 -0 -0 -0 -0 -0 -1 -0 -1 -2 -0 -1 -1 -1 -1 -0 -0 -0 -0 -1 -1 -0 -0 -0 -0 -0 -0
-0 -0 -0 -0 -0 -0 -0 -0 -0 -0 -0 -0 -0 -0 -0 -0 -0 -0 -0 -0 -0 -0 -0 -0 -1 -0 -0 -1 -2 -1 -0 -0 -0 -0 -0 -0 -0 -0 -0 -0 -0 -0 -0
-0 -0 -0 -0 -0 -0 -0 -0 -0 -0 -0 -0 -0 -0 -0 -0 -0 -0 -0 -0 -0 -0 -0 -0 -0 -1 -1 -1 -1 -0 -0 -1 -0 -1 -0 -1 -0 -0 -0 -0 -0 -0 -0
-0 -0 -0 -0 -0 -0 -0 -0 -0 -0 -0 -0 -0 -0 -0 -0 -0 -0 -0 -4 -0 -0 -0 -0 -0 -0 -0 -0 -0 -2 -1 -1 -0 -1 -1 -1 -1 -0 -0 -0 -0 -0 -0
-0 -0 -0 -0 -0 -0 -0 -0 -0 -0 -0 -0 -0 -0 -0 -0 -0 -0 -0 -0 -0 -0 -0 -0 -0 -0 -0 -1 -1 -2 -1 -0 -1 -0 -0 -0 -1 -0 -0 -0 -0 -0 -0
-0 -0 -0 -0 -0 -0 -0 -0 -0 -0 -0 -0 -0 -0 -0 -0 -0 -0 -0 -0 -0 -0 -0 -0 -0 -0 -2 -1 -1 -0 -0 -1 -0 -0 -1 -0 -1 -0 -0 -0 -0 -0 -0
-0 -0 -0 -0 -0 -0 -0 -0 -0 -0 -0 -0 -0 -0 -0 -1 -0 -0 -0 -0 -0 -0 -0 -0 -0 -0 -0 -1 -1 -1 -1 -1 -1 -1 -1 -1 -0 -0 -0 -0 -0 -0 -0
-0 -0 -0 -0 -0 -0 -0 -0 -0 -0 -0 -0 -0 -0 -0 -0 -0 -0 -0 -0 -0 -0 -0 -0 -0 -0 -0 -1 -0 -1 -1 -1 -1 -0 -1 -1 -1 -0 -0 -0 -0 -0 -0
-0 -0 -0 -0 -0 -0 -0 -0 -0 -0 -0 -0 -0 -0 -0 -0 -0 -0 -0 -0 -0 -0 -0 -0 -0 -0 -0 -0 -0 -0 -1 -1 -0 -2 -1 -1 -0 -1 -0 -0 -0 -0 -0
-0 -0 -0 -0 -0 -0 -0 -0 -0 -0 -0 -0 -0 -0 -0 -0 -0 -0 -0 -0 -0 -0 -0 -0 -0 -0 -0 -0 -0 -0 -0 -0 -0 -0 -0 -0 -2 -1 -0 -0 -0 -0 -0
-0 -0 -0 -0 -0 -0 -0 -0 -0 -0 -0 -0 -0 -0 -0 -0 -0 -0 -0 -0 -0 -0 -0 -0 -0 -0 -0 -0 -0 -0 -0 -0 -0 -0 -0 -1 -1 -0 -0 -0 -0 -0 -0
Wind_Speed
8 6 6 6 5 4 3 2 1 2 4 4 5 6 6 7 7 6 5 6 8 8 9 10 10 9 6 6 6 7 7 10 9 5 3 2 3 5 5 7 6 9 8
8 8 8 6 6 5 4 4 2 1 2 3 4 5 5 6 6 8 8 7 6 7 9 9 8 8 10 8 6 9 8 10 12 12 5 3 5 4 4 7 6 7 8
9 9 8 8 7 6 5 4 3 2 2 4 4 4 4 6 7 7 8 8 6 7 8 9 9 8 8 7 9 8 8 9 9 14 9 3 2 1 2 2 3 4 4
11 10 10 9 9 7 5 5 4 3 3 3 4 5 5 5 7 7 7 8 8 8 8 6 9 10 10 9 9 9 9 9 9 8 12 4 2 3 2 4 3 3 3
13 12 13 9 8 6 6 5 4 4 4 3 4 4 5 6 5 5 7 8 8 9 8 9 8 12 20 16 10 9 11 8 8 8 10 4 2 2 6 3 5 2 3
15 16 11 10 9 9 7 5 4 4 3 3 4 5 6 6 11 14 12 8 8 10 10 9 9 14 13 18 19 19 16 12 11 8 9 11 13 6 3 4 2 3 2
15 13 12 11 10 9 7 6 6 5 3 4 5 5 6 7 15 15 16 8 9 8 10 11 10 8 14 11 16 19 18 20 20 13 15 14 14 15 6 6 8 3 5
13 13 12 12 10 8 7 7 5 4 5 4 5 5 6 7 13 15 17 9 8 10 10 10 11 12 12 14 14 14 12 12 12 10 13 14 13 13 10 12 11 4 2
14 14 14 13 11 9 7 6 3 2 3 4 6 7 7 7 14 15 13 8 9 11 10 10 11 11 16 22 15 14 12 12 12 14 17 22 22 20 16 6 6 6 3
12 11 11 11 11 10 7 6 4 4 6 6 8 6 9 9 14 18 14 6 9 8 9 10 17 15 19 22 15 14 13 13 12 14 13 15 17 14 14 17 9 9 4
7 8 9 8 8 7 6 4 3 4 5 4 8 7 8 10 10 17 16 8 8 8 9 9 7 20 24 22 23 13 14 17 18 14 14 12 10 13 5 12 12 11 8
9 8 7 7 5 5 6 3 3 3 4 5 7 8 7 8 14 13 16 17 17 11 10 8 10 22 24 25 21 24 26 23 11 11 11 11 10 10 10 8 13 12 11
9 8 6 6 4 3 5 4 2 3 4 5 7 6 6 7 7 15 17 19 19 13 9 15 27 27 26 21 21 25 25 10 11 11 11 11 10 11 12 8 11 13 5
9 7 5 5 3 3 3 3 3 3 4 6 7 7 6 7 7 7 9 8 15 13 16 13 18 24 26 20 18 14 10 9 10 11 12 11 11 11 12 10 9 9 9
7 6 5 4 1 2 3 3 5 5 7 5 6 7 7 8 9 15 15 9 9 12 18 11 10 10 11 10 10 9 9 9 9 10 11 12 11 12 12 9 9 8 12
4 3 3 3 3 3 3 4 11 16 20 21 23 17 10 21 24 26 27 28 25 26 14 12 12 11 12 10 11 10 10 14 10 10 11 11 10 11 12 7 8 9 11
3 2 2 4 3 3 4 4 6 8 16 18 21 23 25 24 26 26 29 26 27 25 12 11 12 11 11 10 11 12 11 10 12 11 12 12 10 9 15 10 9 10 9
1 8 3 3 3 3 4 5 4 6 7 8 13 17 20 24 26 27 27 24 12 11 10 11 12 11 11 11 12 12 11 9 11 12 11 10 10 10 10 13 10 12 11
2 3 2 3 3 6 5 5 6 7 8 8 7 13 16 22 24 26 26 11 10 9 10 12 12 12 12 12 11 9 11 12 13 11 11 11 11 10 11 14 11 17 16
3 12 11 5 5 4 5 6 6 7 8 8 8 9 8 13 9 9 9 9 10 11 10 12 12 12 12 11 12 11 12 13 11 11 11 11 11 11 11 12 12 11 13
3 4 13 7 5 6 6 7 8 8 9 9 10 11 21 12 11 11 10 9 11 12 12 13 12 12 12 12 12 12 13 11 12 12 10 11 11 11 10 11 15 12 11
5 6 6 6 6 6 7 7 8 9 9 10 10 11 25 14 12 12 12 13 14 14 12 13 12 12 12 12 12 12 13 13 12 12 11 11 11 12 10 11 15 11 11
6 6 7 7 7 13 10 9 9 7 8 10 11 11 11 12 13 14 14 14 13 13 12 13 13 13 12 13 13 13 13 13 12 11 12 11 11 12 10 11 16 11 11
7 7 7 7 7 9 9 9 8 15 16 14 14 14 14 15 14 16 16 15 14 14 13 13 14 17 15 15 13 13 13 13 12 12 15 13 13 13 11 11 15 13 12
8 7 5 4 6 8 10 11 12 13 14 15 15 14 15 15 15 16 16 15 15 14 16 15 14 18 21 24 22 22 20 29 21 19 12 15 15 17 16 12 13 13 12
1 3 5 7 9 10 11 12 14 14 14 15 15 15 16 15 16 16 16 16 15 16 17 14 17 23 24 20 23 26 32 33 27 31 18 14 15 15 12 15 17 15 14
Wind_Direction
187 178 182 186 194 191 201 206 237 330 344 336 331 330 331 330 332 328 321 316 334 326 328 328 327 320 313 322 306 299 320 323 262 258 228 247 249 230 227 217 203 205 212
182 179 192 185 185 197 208 207 206 267 304 316 310 314 321 324 324 325 322 323 319 320 327 324 311 323 325 309 309 310 313 309 320 265 255 224 233 260 245 220 215 216 212
180 182 188 191 189 199 200 201 216 249 268 296 306 300 310 318 322 318 312 307 309 309 303 307 309 308 298 303 310 307 326 307 309 314 266 207 187 257 290 303 226 222 212
184 189 193 193 193 191 189 196 205 223 267 283 286 294 304 306 312 305 301 307 308 306 293 291 305 307 307 308 301 310 307 301 302 304 301 265 202 173 205 226 236 229 204
187 193 201 188 181 178 188 198 206 211 247 264 283 286 289 297 299 303 309 304 305 308 310 306 299 301 302 298 295 295 293 292 296 303 299 287 222 165 198 208 231 158 199
192 201 188 179 176 184 183 184 195 216 235 262 278 284 287 292 300 308 309 303 311 307 304 307 300 301 296 302 300 294 287 288 285 286 288 286 292 237 200 204 179 150 232
195 193 182 177 179 180 174 181 202 204 209 248 260 265 275 284 300 303 307 308 300 299 300 296 295 298 304 290 293 294 289 283 277 283 277 272 288 282 227 215 217 178 193
190 186 177 174 180 171 177 190 187 195 219 237 255 261 264 273 290 303 305 301 300 291 285 287 293 296 294 297 300 297 298 293 271 267 275 275 276 302 273 225 223 201 64
189 187 179 175 169 164 179 180 167 191 240 247 265 266 259 268 288 293 301 301 291 291 290 289 286 289 307 307 302 299 301 299 291 283 289 301 271 277 283 232 184 173 223
192 184 165 159 165 175 170 163 173 192 235 254 268 259 270 281 288 293 293 275 286 287 288 287 288 294 303 304 298 298 296 297 310 303 296 293 294 281 275 228 211 205 173
129 143 153 153 151 154 151 153 182 204 239 256 269 273 267 263 265 282 285 284 282 285 285 290 298 302 299 298 296 292 294 299 299 295 291 284 288 282 251 230 225 211 207
132 127 121 129 144 145 153 153 194 212 223 243 259 269 267 268 273 275 280 281 285 283 289 298 298 294 288 291 296 290 290 291 287 286 287 281 283 273 263 214 236 224 222
121 122 120 124 138 145 163 172 168 191 234 253 262 261 263 274 274 281 286 289 286 282 291 286 291 295 296 297 292 289 291 285 281 279 277 275 275 278 267 246 226 240 225
113 115 116 126 152 188 197 208 192 201 227 246 251 260 269 275 273 274 277 279 278 284 281 282 280 282 290 294 295 286 277 274 271 273 278 278 280 276 255 244 221 207 210
114 127 137 153 170 205 236 206 224 223 210 220 238 244 252 257 256 267 267 258 253 254 282 285 286 284 285 281 278 270 274 274 268 270 273 274 275 280 252 233 217 209 214
116 142 176 189 209 226 242 273 266 262 261 262 265 256 235 247 255 268 277 279 278 283 283 280 279 281 281 283 281 279 278 280 271 271 270 268 270 283 271 224 205 209 211
163 170 215 242 219 228 246 246 277 292 285 281 278 278 277 275 276 280 280 280 281 284 277 277 276 277 281 283 282 276 275 284 289 282 279 282 286 278 297 243 207 209 210
214 253 199 225 221 232 228 247 246 258 277 284 277 276 279 278 277 275 275 282 287 281 276 277 276 275 274 276 276 272 274 281 283 276 277 284 290 290 290 273 210 214 211
233 250 241 247 238 237 228 239 246 251 252 258 265 276 280 282 280 279 278 281 282 278 275 272 270 269 267 263 266 270 272 274 271 274 275 275 278 282 277 282 225 210 206
239 259 254 212 235 247 248 247 252 253 257 259 261 259 261 280 275 264 255 254 257 260 257 257 259 261 261 267 268 267 269 268 268 271 273 274 274 274 272 285 251 211 211
235 254 261 264 242 238 238 242 246 254 259 260 261 260 262 253 246 249 252 258 260 261 259 259 257 258 261 262 261 263 261 263 264 267 268 269 271 274 276 272 267 210 207
229 241 246 243 250 246 245 246 248 250 253 256 259 256 268 273 275 272 267 265 263 259 255 256 258 257 255 254 255 257 258 260 260 263 265 267 270 271 271 272 283 208 200
226 234 242 246 246 264 270 267 258 250 252 257 261 263 258 258 258 257 256 255 254 252 250 249 250 252 251 252 251 250 252 253 257 258 261 262 270 273 276 272 282 207 191
253 242 246 251 254 256 256 259 259 270 273 270 268 264 262 260 258 256 254 254 252 250 247 247 248 250 252 249 249 250 249 251 254 256 260 262 260 274 269 273 290 217 189
257 256 252 259 265 269 275 274 270 268 266 265 264 261 258 257 255 252 252 251 251 249 247 244 244 246 247 248 248 249 249 254 253 251 256 257 258 265 267 271 267 258 193
33 256 266 269 268 265 261 263 263 262 261 260 259 258 257 256 253 252 252 250 248 247 245 244 243 243 247 249 250 249 252 254 253 257 253 252 254 253 254 256 259 261 200